Regional Weather Roundup
Issued by NWS Midland/Odessa, TX

Home | Current Version | Previous Version | Text Only | Print | Product List | Glossary On
Versions: 1 2 3 4 5 6 7 8 9 10 11 12 13 14 15 16 17 18 19 20 21 22 23 24 25 26 27 28 29 30 31 32 33 34 35 36 37 38 39 40 41 42 43 44 45 46 47 48 49 50
000
ASUS44 KMAF 271101
RWRMAF
MIDLAND AREA WEATHER ROUNDUP
NATIONAL WEATHER SERVICE MIDLAND TX
600 AM CDT SAT MAY 27 2017

...IN SOUTHWEST TEXAS AND SOUTHEAST NEW MEXICO...

CITY           SKY/WX    TMP DP  RH WIND       PRES   REMARKS
ALPINE         CLEAR     65  39  38 SW8       30.09S
ANDREWS        FAIR      68  61  77 W8        29.91R
ARTESIA        CLEAR     64  27  24 SW12      29.93R
BIG SPRING     CLEAR     70  65  86 S7        29.90R
CARLSBAD       CLEAR     72  28  19 W13       29.91R
DRYDEN           N/A     71  69  93 N7        29.87R
FORT STOCKTON    N/A     76  40  27 W12       29.91R
GUAD PASS      NOT AVBL
HOBBS          CLEAR     68  27  21 W9        29.92S
MARFA          CLEAR     56  32  40 NE3       30.09R
MIDLAND AIRPK  CLEAR     75  64  70 SW9G17    29.90S
MIDLAND INTL   CLEAR     76  64  66 S17       29.89S
ODESSA         CLEAR     73  65  75 S8        29.90S
PECOS          CLEAR     67  33  27 SW6       29.90R
PRESIDIO       FAIR      77  32  19 N3        29.94R
SEMINOLE       CLEAR     68  52  56 SW8       29.92R
SNYDER         CLEAR     67  61  80 CALM      29.87R
WINK             N/A     65  41  41 SW6       29.88R
$$
...OTHER STATIONS IN TEXAS...

CITY           SKY/WX    TMP DP  RH WIND       PRES   REMARKS
ABILENE        CLEAR     77  70  79 S20       29.83R
AMARILLO       CLEAR     58  30  34 SW9       29.85R
AUSTIN         CLOUDY    79  75  87 S8        29.85S
BROWNSVILLE    CLOUDY    81  78  91 SE12      29.86S
CORPUS CHRISTI CLOUDY    80  77  90 S13       29.85S FOG
DALLAS FTW     CLOUDY    81  75  82 S16       29.80R
DEL RIO        CLOUDY    78  76  93 E10       29.82R
EL PASO        CLEAR     73  27  18 SW8       30.01R
HOUSTON INT    CLOUDY    80  75  84 S9        29.90R FOG
LUBBOCK        PTCLDY    73  38  27 SW15      29.87R
SAN ANGELO     MOCLDY    74  69  85 S9        29.85S
SAN ANTONIO    CLOUDY    78  74  87 S8G18     29.87S
WACO           CLOUDY    77  76  96 S10       29.85R
WICHITA FALLS  NOT AVBL
$$
...OTHER LOCATIONS IN NEW MEXICO...

CITY           SKY/WX    TMP DP  RH WIND       PRES   REMARKS
ALAMOGORDO     CLEAR     63  23  22 SE8       30.03R
ALBUQUERQUE    CLEAR     63  10  12 SW9       30.07R
CANNON AFB     CLEAR     61  24  24 W9        29.94S
CLOVIS         CLEAR     61  25  25 W9        29.93R
HOLLOMAN AFB   CLEAR     62  22  21 CALM      30.04R
ROSWELL        CLEAR     67  23  19 NW5       29.91R
RUIDOSO        CLEAR     61  16  17 SW5       30.13R
SANTA FE       CLEAR     47  16  29 NE7       30.09R
TRUTH OR CONSE CLEAR     60  15  17 NW9       30.03R
TUCUMCARI      CLEAR     54  26  34 SW9       29.87R
$$



USA.gov is the U.S. government's official web portal to all federal, state and local government web resources and services.